Notices

What's New in latest Release from April 7th, 2021:

- Updated Glossary, including Speed of Maximum Gust, and Total Hourly Precipitation

- Updated national and regional climate services offices contacts and prices information

- Addition of station inventory lists for 1981-2010, 1971-2000, and 1961-1990 Normals.

Please note that as of June 10, 2021 UTC dates are available for all years 2004-present, and DBA is working on populating the remaining years (2003 to 1953).

If you haven't already, please take our survey and provide feedback about our website: https://eccc.sondage-survey.ca/f/LanguageSelection.aspx?s=442ca660-fcf1-47c0-95a9-59707d6fd709

Hourly Data Report for April 27, 2017

CLYDE RIVER A
NUNAVUT

70°29'09.000" N
68°31'01.000" W
26.50 m
2400804
71090
YCY

Download Data

Hourly Data (April 2017)
Hourly Data Report for April 27, 2017
TIME
LST
Temp Definition
°C
Dew Point Definition
°C
Rel Hum Definition
%
Precip. Amount Definition
mm

Wind Dir Definition
10's deg

Wind Spd Definition
km/h
Visibility Definition
km
Stn Press Definition
kPa
Hmdx Definition


Wind Chill Definition


Weather Definition


00:00 -17.8 -20.8 78 0.0 31 21 16.1 100.55   -28 LegendNANA
01:00 -18.6 -21.8 76 0.0 30 18 16.1 100.56   -28 LegendNANA
02:00 -20.5 -23.6 77 0.0 30 18 16.1 100.60   -31 LegendNANA
03:00 -20.1 -23.1 78 0.0 30 21 16.1 100.60   -31 LegendNANA
04:00 -21.3 -24.5 76 0.0 30 15 16.1 100.60   -31 LegendNANA
05:00 -21.3 -24.3 77 0.0 30 13 16.1 100.62   -30 LegendNANA
06:00 -18.1 -21.3 76 0.0 26 8 16.1 100.64   -24 LegendNANA
07:00 -17.5 -21.3 73 0.0 25 5 16.1 100.66   -21 LegendNANA
08:00 -17.0 -20.8 73 0.0 25 5 16.1 100.68   -21 LegendNANA
09:00 -15.9 -19.5 74 0.0 25 5 16.1 100.68   -20 LegendNANA
10:00 -14.5 -19.1 69 0.0 24 5 16.1 100.71   -18 LegendNANA
11:00 -13.8 -18.7 67 0.0 24 5 16.1 100.72   -17 LegendNANA
12:00 -13.1 -18.2 66 0.0 LegendMM 4 16.1 100.76   -16 LegendNANA
13:00 -13.6 -18.1 69 0.0 14 4 16.1 100.78   -16 LegendNANA
14:00 -13.5 -17.2 74 0.0 13 8 16.1 100.81   -19 LegendNANA
15:00 -13.5 -17.1 75 0.0 12 8 16.1 100.85   -19 LegendNANA
16:00 -13.8 -16.9 78 0.0 12 11 16.1 100.88   -20 LegendNANA
17:00 -14.6 -17.1 82 0.0 10 8 16.1 100.91   -20 LegendNANA
18:00 -15.6 -17.4 86 0.0 9 9 16.1 100.91   -22 LegendNANA
19:00 -18.1 -20.2 84 0.0 36 8 16.1 100.93   -24 LegendNANA
20:00 -19.7 -22.0 82 0.0 31 11 16.1 100.97   -27 LegendNANA
21:00 -20.1 -23.5 75 0.0 31 8 16.1 101.00   -26 LegendNANA
22:00 -20.9 -24.0 77 0.0 28 8 16.1 101.05   -27 LegendNANA
23:00 -21.4 -24.8 74 0.0 29 5 16.1 101.07   -26 LegendNANA

Notes on Data Quality.

Legend

  • E = Estimated
  • M = Missing
  • NA = Not Available*
  • [empty] = Indicates an unobserved value
Date modified: